Temp
-16 -16 -15 -15 -15 -15 -15 -15 -15 -15 -15 -15 -15 -15 -15 -14 -14 -14 -14 -14 -14 -14 -14 -14 -14 -14 -14 -14 -14 -14 -14 -14 -14 -14 -14 -14 -14 -14 -14 -14 -14 -14 -14 -14 -14 -14 -15 -15 -15 -15 -15 -15 -15 -14 -14 -14 -14 -14 -14 -15 -15 -15 -15
-16 -16 -16 -16 -16 -16 -16 -15 -15 -15 -15 -15 -15 -15 -15 -15 -15 -14 -14 -14 -14 -14 -14 -14 -14 -14 -14 -14 -14 -14 -14 -14 -14 -14 -14 -14 -14 -14 -14 -14 -14 -14 -14 -14 -14 -15 -15 -15 -15 -15 -15 -15 -15 -15 -14 -15 -14 -14 -14 -15 -15 -15 -15
-16 -16 -16 -16 -16 -16 -16 -16 -15 -15 -15 -15 -15 -15 -15 -15 -15 -15 -15 -15 -15 -15 -14 -14 -14 -14 -14 -14 -14 -14 -14 -14 -14 -14 -14 -14 -14 -14 -14 -14 -15 -15 -14 -14 -14 -15 -15 -15 -15 -15 -15 -15 -15 -15 -15 -15 -14 -14 -14 -15 -15 -15 -15
-16 -16 -16 -17 -16 -16 -16 -16 -16 -16 -15 -16 -16 -15 -15 -15 -15 -15 -15 -15 -15 -15 -15 -15 -14 -14 -14 -14 -14 -14 -14 -14 -14 -14 -14 -14 -14 -14 -14 -14 -15 -15 -15 -15 -15 -14 -14 -15 -15 -15 -15 -15 -15 -15 -15 -14 -14 -15 -15 -15 -15 -15 -15
-16 -17 -17 -17 -17 -17 -17 -16 -16 -16 -16 -16 -16 -16 -16 -16 -15 -15 -15 -15 -15 -15 -15 -15 -15 -15 -15 -14 -14 -14 -14 -14 -14 -14 -14 -14 -14 -14 -14 -14 -15 -15 -15 -15 -15 -15 -15 -15 -15 -15 -15 -15 -15 -15 -15 -14 -14 -15 -14 -14 -15 -15 -15
-16 -17 -17 -17 -17 -17 -17 -17 -16 -16 -16 -17 -17 -16 -16 -16 -16 -16 -16 -15 -15 -15 -15 -15 -15 -15 -15 -15 -15 -14 -14 -14 -14 -14 -15 -14 -14 -15 -15 -15 -15 -15 -15 -15 -15 -15 -15 -15 -15 -15 -15 -15 -15 -15 -15 -14 -14 -15 -14 -14 -15 -15 -15
-16 -16 -17 -17 -17 -17 -17 -17 -17 -17 -17 -17 -17 -17 -17 -16 -16 -16 -16 -16 -16 -16 -16 -15 -15 -15 -15 -15 -15 -15 -15 -15 -15 -15 -15 -15 -15 -15 -15 -15 -15 -15 -15 -15 -15 -15 -15 -15 -15 -15 -15 -15 -15 -15 -15 -14 -15 -15 -15 -15 -15 -15 -15
-16 -16 -17 -17 -17 -17 -17 -17 -17 -17 -17 -17 -17 -17 -17 -17 -17 -17 -16 -16 -16 -16 -16 -16 -16 -16 -15 -15 -15 -15 -15 -15 -15 -15 -15 -15 -15 -15 -15 -15 -15 -15 -15 -15 -15 -15 -15 -15 -15 -15 -15 -15 -15 -15 -15 -14 -15 -15 -15 -15 -15 -15 -15
-17 -17 -17 -17 -17 -17 -17 -17 -17 -17 -17 -17 -17 -17 -17 -17 -17 -17 -17 -17 -16 -16 -16 -16 -16 -16 -16 -16 -16 -16 -15 -15 -15 -15 -15 -15 -15 -15 -15 -15 -15 -15 -15 -15 -15 -15 -15 -15 -15 -16 -15 -15 -15 -15 -15 -15 -15 -15 -15 -15 -15 -15 -15
-17 -17 -17 -17 -17 -18 -17 -17 -17 -17 -18 -18 -18 -18 -17 -17 -17 -17 -17 -17 -17 -17 -17 -16 -16 -16 -16 -16 -16 -16 -16 -16 -16 -15 -15 -15 -15 -15 -15 -15 -16 -16 -16 -16 -16 -16 -16 -16 -16 -16 -16 -16 -16 -15 -15 -15 -15 -15 -15 -15 -15 -15 -15
-17 -17 -17 -17 -17 -18 -18 -18 -18 -18 -18 -18 -18 -18 -18 -18 -18 -18 -17 -17 -17 -17 -17 -17 -17 -17 -17 -16 -16 -16 -16 -16 -16 -16 -16 -16 -16 -16 -16 -16 -16 -16 -16 -16 -16 -16 -16 -16 -16 -16 -16 -16 -16 -16 -16 -16 -16 -16 -16 -16 -16 -16 -16
-17 -17 -17 -17 -18 -18 -18 -18 -18 -18 -18 -18 -18 -18 -18 -18 -18 -18 -18 -18 -17 -17 -17 -17 -17 -17 -17 -17 -17 -17 -17 -17 -16 -16 -16 -16 -16 -16 -16 -16 -16 -16 -16 -16 -16 -16 -16 -16 -16 -16 -16 -16 -16 -16 -16 -16 -16 -16 -16 -16 -16 -16 -16
-17 -17 -17 -18 -18 -18 -18 -18 -19 -19 -19 -19 -18 -18 -18 -18 -18 -18 -18 -18 -18 -17 -17 -17 -17 -17 -17 -17 -17 -17 -17 -17 -17 -17 -17 -17 -17 -16 -16 -16 -16 -16 -16 -16 -16 -16 -16 -16 -17 -17 -17 -17 -17 -16 -16 -16 -16 -16 -16 -16 -16 -16 -16
-17 -17 -18 -18 -18 -18 -18 -18 -19 -19 -19 -19 -19 -19 -18 -18 -18 -18 -18 -18 -18 -18 -18 -18 -18 -18 -18 -18 -17 -17 -17 -17 -17 -17 -17 -17 -17 -17 -17 -17 -17 -17 -17 -17 -17 -17 -17 -17 -17 -17 -17 -17 -17 -17 -17 -17 -17 -16 -16 -16 -16 -16 -16
-17 -17 -18 -18 -18 -18 -18 -18 -18 -19 -19 -19 -19 -19 -19 -18 -18 -18 -18 -18 -18 -18 -18 -18 -18 -18 -18 -18 -18 -18 -18 -18 -18 -18 -17 -17 -17 -17 -17 -17 -17 -17 -17 -17 -17 -17 -17 -17 -17 -17 -17 -17 -17 -17 -17 -17 -17 -17 -17 -17 -17 -17 -17
-17 -18 -18 -18 -18 -18 -18 -18 -18 -18 -18 -19 -19 -19 -19 -18 -18 -18 -18 -18 -18 -18 -18 -18 -18 -18 -18 -18 -18 -18 -18 -18 -18 -18 -18 -18 -18 -18 -18 -18 -18 -17 -17 -17 -17 -17 -17 -17 -17 -17 -17 -17 -17 -17 -17 -17 -17 -17 -17 -17 -17 -17 -17
-17 -17 -18 -17 -18 -18 -18 -18 -18 -18 -18 -18 -19 -19 -19 -19 -19 -18 -18 -18 -18 -18 -18 -18 -18 -18 -18 -18 -18 -18 -18 -18 -18 -18 -18 -18 -18 -18 -18 -18 -18 -18 -18 -18 -18 -17 -17 -17 -17 -17 -17 -17 -17 -17 -17 -17 -17 -17 -17 -17 -17 -17 -17
-17 -18 -18 -18 -18 -18 -18 -18 -18 -18 -18 -18 -18 -19 -19 -19 -19 -19 -18 -18 -18 -18 -18 -19 -19 -18 -18 -18 -18 -18 -18 -18 -18 -18 -18 -18 -18 -18 -18 -18 -18 -18 -18 -18 -18 -18 -18 -18 -18 -18 -18 -18 -18 -18 -18 -18 -18 -18 -18 -18 -17 -17 -17
-18 -18 -18 -18 -18 -18 -18 -18 -18 -18 -18 -18 -18 -19 -19 -19 -19 -19 -19 -19 -19 -19 -19 -19 -19 -19 -19 -19 -19 -19 -19 -18 -18 -18 -18 -18 -18 -18 -18 -18 -18 -18 -18 -18 -18 -18 -18 -18 -18 -18 -18 -18 -18 -18 -18 -18 -18 -18 -18 -18 -18 -18 -18
-18 -18 -18 -18 -18 -18 -17 -17 -17 -17 -18 -18 -18 -19 -19 -19 -19 -19 -19 -19 -19 -19 -19 -19 -19 -19 -19 -19 -19 -19 -19 -19 -19 -19 -19 -18 -18 -19 -19 -19 -19 -18 -18 -18 -18 -18 -18 -18 -18 -18 -18 -18 -18 -18 -18 -18 -18 -18 -18 -18 -18 -18 -18
-18 -18 -18 -18 -18 -18 -18 -18 -18 -18 -18 -19 -19 -19 -19 -19 -19 -19 -19 -19 -19 -19 -19 -19 -19 -19 -19 -19 -19 -19 -19 -19 -19 -19 -19 -19 -19 -19 -19 -19 -19 -19 -19 -19 -19 -18 -18 -18 -18 -18 -18 -18 -18 -18 -18 -18 -18 -18 -18 -18 -18 -18 -18
-18 -18 -18 -19 -19 -19 -19 -19 -19 -19 -19 -19 -19 -19 -19 -19 -19 -19 -19 -18 -18 -19 -19 -19 -19 -19 -19 -19 -19 -19 -19 -19 -19 -19 -19 -19 -19 -19 -19 -19 -19 -19 -19 -19 -19 -19 -19 -18 -18 -18 -18 -18 -18 -18 -18 -18 -18 -18 -18 -18 -18 -18 -18
-18 -19 -19 -19 -19 -19 -19 -19 -19 -19 -19 -20 -20 -20 -19 -19 -19 -19 -19 -19 -19 -19 -19 -19 -19 -19 -19 -19 -19 -19 -19 -19 -19 -19 -19 -19 -19 -19 -19 -19 -19 -19 -19 -19 -19 -19 -19 -19 -18 -18 -18 -18 -18 -18 -18 -18 -18 -18 -18 -18 -18 -18 -18
-19 -19 -19 -19 -20 -20 -20 -20 -20 -20 -20 -20 -20 -20 -20 -20 -20 -20 -19 -19 -19 -19 -19 -19 -19 -19 -19 -19 -19 -19 -19 -19 -19 -19 -19 -19 -19 -19 -19 -19 -19 -19 -19 -19 -19 -19 -19 -19 -19 -19 -19 -19 -18 -18 -18 -18 -18 -18 -18 -18 -18 -18 -17
-19 -19 -19 -19 -19 -20 -20 -20 -20 -20 -20 -20 -20 -20 -20 -20 -20 -20 -20 -20 -20 -19 -19 -19 -19 -19 -19 -19 -19 -19 -19 -19 -19 -19 -19 -19 -19 -19 -20 -20 -19 -19 -19 -19 -19 -19 -19 -19 -19 -19 -19 -19 -19 -19 -18 -18 -18 -18 -18 -18 -18 -18 -18
-19 -19 -19 -19 -19 -19 -20 -20 -20 -20 -20 -20 -20 -20 -20 -20 -20 -20 -20 -20 -20 -20 -20 -20 -20 -20 -20 -20 -20 -19 -19 -19 -19 -19 -19 -19 -19 -19 -20 -20 -20 -20 -20 -19 -19 -19 -19 -19 -19 -19 -19 -19 -19 -18 -18 -18 -18 -18 -18 -18 -18 -18 -18
-19 -19 -19 -19 -19 -20 -20 -20 -20 -20 -20 -20 -20 -20 -20 -20 -20 -20 -20 -20 -20 -20 -20 -20 -20 -20 -20 -20 -20 -20 -20 -20 -20 -20 -20 -19 -19 -20 -20 -20 -20 -20 -20 -20 -19 -19 -19 -19 -19 -19 -19 -19 -19 -19 -19 -19 -19 -18 -18 -18 -18 -18 -18
-20 -20 -20 -20 -20 -20 -20 -20 -20 -20 -20 -20 -20 -20 -20 -20 -20 -20 -20 -20 -20 -21 -21 -21 -21 -21 -21 -21 -21 -20 -20 -20 -20 -20 -20 -20 -20 -20 -20 -20 -20 -20 -20 -20 -20 -20 -20 -20 -20 -20 -19 -19 -19 -19 -19 -19 -19 -19 -19 -19 -19 -19 -19
-20 -20 -20 -20 -20 -20 -20 -20 -20 -20 -20 -20 -20 -20 -20 -20 -21 -21 -21 -21 -21 -21 -21 -21 -21 -21 -21 -21 -21 -21 -21 -21 -21 -21 -21 -20 -20 -20 -20 -20 -20 -20 -20 -20 -20 -20 -20 -20 -20 -20 -20 -20 -20 -20 -20 -19 -19 -19 -19 -19 -19 -19 -19
-21 -21 -21 -21 -21 -21 -21 -21 -21 -21 -21 -21 -21 -21 -21 -21 -21 -21 -21 -21 -21 -21 -21 -21 -21 -21 -21 -21 -21 -21 -21 -21 -21 -21 -21 -21 -21 -21 -21 -21 -21 -20 -20 -20 -20 -20 -20 -20 -20 -20 -20 -20 -20 -20 -20 -19 -19 -19 -19 -19 -19 -19 -19
-21 -21 -21 -21 -21 -21 -21 -21 -21 -21 -21 -21 -21 -21 -21 -21 -21 -21 -21 -21 -21 -21 -21 -22 -22 -22 -21 -21 -21 -21 -21 -21 -21 -21 -21 -21 -21 -21 -21 -21 -21 -21 -21 -21 -20 -20 -20 -20 -20 -20 -20 -20 -20 -20 -19 -20 -20 -20 -20 -20 -19 -19 -19
-21 -21 -21 -21 -21 -21 -21 -21 -21 -21 -21 -21 -21 -21 -21 -21 -21 -21 -22 -22 -22 -21 -21 -22 -22 -22 -22 -22 -22 -21 -21 -21 -21 -21 -21 -21 -21 -21 -21 -21 -21 -21 -21 -21 -21 -21 -21 -20 -20 -20 -20 -20 -20 -20 -20 -20 -20 -20 -20 -20 -19 -19 -19
-22 -22 -22 -22 -22 -22 -22 -22 -22 -22 -22 -22 -22 -21 -21 -21 -21 -21 -22 -22 -22 -22 -22 -22 -22 -22 -22 -22 -22 -22 -22 -22 -22 -22 -22 -22 -22 -21 -21 -21 -21 -21 -21 -21 -21 -21 -21 -21 -20 -20 -20 -20 -20 -20 -20 -20 -20 -20 -20 -20 -20 -20 -20
-22 -22 -22 -22 -22 -22 -22 -22 -22 -22 -22 -22 -22 -21 -21 -21 -21 -21 -22 -22 -22 -22 -22 -22 -22 -22 -22 -22 -22 -22 -22 -22 -22 -22 -22 -22 -22 -22 -22 -22 -22 -22 -21 -21 -21 -21 -21 -21 -21 -21 -21 -20 -20 -20 -20 -20 -20 -20 -20 -20 -20 -20 -20
-22 -22 -22 -22 -22 -22 -22 -22 -22 -22 -22 -22 -22 -22 -22 -22 -22 -22 -22 -22 -22 -22 -22 -22 -22 -22 -22 -22 -22 -22 -22 -22 -22 -22 -22 -22 -22 -22 -22 -22 -22 -22 -22 -22 -21 -21 -21 -21 -21 -21 -21 -21 -21 -21 -21 -21 -21 -20 -20 -20 -20 -20 -20
-23 -23 -23 -23 -23 -22 -22 -22 -22 -22 -22 -22 -22 -22 -22 -22 -22 -22 -22 -22 -22 -22 -22 -22 -22 -22 -22 -22 -22 -22 -22 -22 -22 -22 -22 -22 -22 -22 -22 -22 -22 -22 -22 -22 -22 -22 -22 -22 -22 -21 -21 -21 -21 -21 -21 -21 -21 -21 -21 -21 -21 -21 -21
-23 -23 -23 -23 -23 -23 -23 -23 -23 -23 -23 -22 -22 -22 -23 -23 -23 -23 -22 -22 -22 -22 -22 -22 -22 -22 -22 -22 -22 -22 -22 -22 -22 -22 -22 -22 -22 -22 -22 -22 -22 -22 -22 -22 -22 -22 -22 -22 -22 -22 -22 -22 -22 -22 -22 -22 -21 -21 -21 -21 -21 -21 -21
Height
5761 5760 5760 5759 5759 5759 5759 5760 5760 5760 5760 5760 5760 5761 5762 5762 5762 5763 5763 5763 5763 5763 5763 5764 5764 5764 5765 5765 5765 5765 5766 5766 5767 5767 5767 5767 5768 5768 5767 5768 5770 5770 5770 5770 5770 5770 5771 5771 5772 5773 5773 5774 5774 5774 5774 5774 5774 5775 5775 5775 5776 5777 5777
5758 5758 5757 5757 5757 5757 5757 5757 5757 5758 5758 5758 5758 5759 5759 5760 5761 5761 5761 5761 5761 5761 5761 5761 5761 5762 5762 5762 5763 5763 5763 5764 5764 5764 5764 5764 5765 5765 5765 5766 5767 5767 5767 5767 5767 5768 5769 5770 5770 5771 5771 5771 5771 5771 5771 5771 5772 5773 5774 5774 5774 5775 5775
5756 5755 5755 5755 5755 5755 5755 5755 5755 5756 5756 5756 5756 5756 5757 5758 5758 5759 5759 5759 5759 5759 5759 5759 5759 5759 5760 5760 5760 5760 5761 5761 5762 5762 5762 5762 5762 5763 5763 5763 5763 5764 5764 5764 5764 5765 5766 5767 5767 5768 5769 5769 5769 5768 5768 5769 5770 5771 5772 5772 5772 5773 5774
5754 5753 5753 5753 5753 5753 5754 5754 5754 5754 5754 5754 5754 5754 5755 5755 5756 5756 5756 5757 5757 5757 5757 5757 5757 5757 5757 5757 5757 5758 5758 5758 5759 5759 5759 5759 5759 5760 5761 5761 5761 5761 5761 5761 5762 5762 5762 5763 5764 5765 5765 5765 5766 5766 5765 5766 5768 5769 5769 5770 5770 5771 5772
5753 5752 5752 5752 5752 5752 5752 5752 5752 5752 5752 5752 5752 5752 5753 5753 5753 5754 5754 5754 5755 5755 5755 5755 5755 5755 5755 5755 5755 5755 5755 5756 5756 5756 5756 5756 5757 5757 5757 5758 5758 5758 5759 5759 5759 5759 5760 5760 5761 5762 5762 5762 5762 5763 5763 5764 5765 5766 5766 5767 5768 5768 5769
5751 5750 5750 5750 5751 5751 5751 5751 5751 5751 5751 5751 5751 5751 5751 5751 5751 5751 5752 5752 5752 5753 5753 5753 5753 5752 5752 5752 5752 5753 5753 5753 5753 5753 5753 5753 5754 5754 5754 5755 5755 5755 5756 5756 5756 5756 5757 5757 5757 5758 5758 5759 5759 5759 5760 5761 5762 5763 5763 5764 5765 5765 5765
5749 5748 5747 5748 5749 5749 5749 5749 5749 5749 5749 5749 5749 5749 5749 5749 5749 5749 5749 5750 5750 5750 5751 5751 5751 5751 5751 5750 5750 5750 5750 5750 5750 5751 5751 5751 5751 5751 5751 5752 5752 5752 5752 5753 5753 5753 5753 5754 5754 5754 5755 5755 5755 5756 5756 5757 5759 5759 5760 5760 5761 5761 5762
5746 5746 5745 5745 5746 5747 5747 5747 5747 5748 5747 5747 5748 5748 5748 5748 5748 5747 5747 5748 5748 5748 5748 5748 5748 5749 5749 5749 5748 5748 5748 5748 5748 5748 5748 5748 5748 5748 5749 5749 5749 5749 5750 5750 5750 5750 5750 5750 5751 5751 5751 5752 5752 5752 5753 5754 5755 5756 5756 5757 5758 5758 5758
5744 5744 5743 5743 5743 5744 5744 5745 5745 5746 5746 5746 5746 5746 5746 5746 5746 5746 5746 5746 5746 5746 5746 5746 5746 5746 5746 5746 5746 5746 5746 5746 5746 5746 5746 5746 5746 5746 5746 5746 5746 5747 5747 5747 5747 5747 5747 5748 5748 5748 5748 5749 5749 5749 5750 5751 5752 5753 5753 5754 5754 5754 5755
5742 5742 5742 5741 5741 5741 5742 5742 5743 5743 5744 5744 5744 5744 5744 5744 5744 5744 5744 5744 5744 5744 5744 5745 5745 5745 5745 5745 5745 5744 5744 5744 5744 5744 5744 5744 5744 5744 5744 5744 5744 5744 5744 5744 5745 5745 5745 5745 5745 5746 5746 5746 5746 5747 5747 5748 5749 5749 5750 5751 5751 5751 5752
5739 5740 5740 5740 5739 5739 5739 5740 5740 5741 5741 5742 5742 5742 5743 5742 5742 5742 5742 5742 5742 5742 5742 5743 5743 5743 5743 5743 5743 5743 5743 5743 5743 5743 5742 5742 5742 5742 5742 5742 5742 5742 5742 5742 5743 5743 5743 5743 5743 5743 5743 5744 5744 5744 5744 5745 5746 5747 5748 5748 5749 5749 5749
5737 5738 5738 5738 5738 5738 5738 5738 5738 5738 5739 5740 5740 5740 5740 5740 5740 5740 5740 5740 5740 5740 5741 5741 5741 5742 5742 5742 5742 5741 5741 5741 5741 5741 5741 5741 5741 5741 5741 5741 5741 5741 5741 5741 5741 5741 5741 5741 5741 5741 5741 5741 5742 5742 5742 5743 5743 5744 5745 5746 5746 5747 5747
5735 5735 5736 5736 5736 5736 5737 5737 5737 5737 5737 5737 5738 5738 5738 5738 5738 5738 5738 5739 5739 5739 5739 5739 5740 5740 5740 5740 5740 5740 5740 5740 5740 5740 5740 5740 5740 5739 5739 5739 5739 5739 5739 5739 5739 5739 5739 5739 5739 5739 5739 5739 5740 5740 5740 5741 5741 5741 5742 5743 5744 5745 5745
5732 5732 5733 5733 5733 5734 5735 5735 5735 5735 5735 5735 5735 5736 5735 5735 5735 5736 5736 5736 5737 5737 5738 5738 5738 5738 5739 5739 5739 5739 5738 5738 5738 5738 5738 5738 5738 5738 5738 5737 5737 5737 5737 5737 5737 5738 5738 5738 5738 5738 5737 5738 5738 5738 5738 5738 5739 5739 5739 5740 5741 5742 5742
5730 5730 5730 5730 5731 5731 5732 5733 5733 5733 5733 5733 5733 5733 5733 5734 5734 5734 5734 5734 5734 5735 5736 5736 5737 5737 5737 5737 5737 5737 5736 5736 5736 5736 5736 5736 5736 5736 5736 5736 5736 5735 5735 5735 5735 5736 5736 5736 5736 5736 5736 5736 5736 5736 5736 5736 5736 5736 5737 5737 5738 5738 5739
5727 5726 5727 5727 5728 5729 5730 5730 5730 5730 5730 5731 5731 5731 5731 5732 5732 5731 5731 5731 5732 5732 5733 5734 5734 5734 5734 5734 5734 5734 5734 5734 5734 5734 5734 5734 5734 5734 5734 5734 5734 5733 5733 5733 5733 5733 5734 5734 5734 5734 5734 5734 5734 5734 5734 5734 5734 5734 5734 5735 5735 5735 5736
5722 5721 5722 5723 5724 5725 5726 5726 5727 5727 5727 5728 5728 5728 5729 5729 5729 5729 5729 5729 5729 5729 5730 5730 5731 5731 5731 5732 5732 5732 5732 5732 5731 5731 5731 5732 5731 5731 5731 5731 5731 5731 5731 5731 5731 5731 5731 5732 5732 5732 5732 5732 5732 5732 5732 5732 5732 5732 5732 5732 5732 5732 5733
5718 5718 5718 5719 5720 5721 5722 5723 5724 5724 5724 5724 5725 5725 5725 5725 5725 5726 5727 5727 5727 5727 5727 5727 5727 5727 5728 5729 5729 5729 5729 5729 5729 5729 5729 5729 5729 5729 5729 5728 5728 5728 5728 5729 5729 5729 5729 5729 5729 5729 5729 5729 5729 5729 5729 5729 5729 5729 5729 5729 5729 5729 5729
5715 5715 5715 5717 5718 5719 5720 5720 5721 5721 5720 5720 5721 5722 5722 5722 5723 5723 5724 5724 5724 5724 5724 5724 5724 5724 5724 5725 5725 5725 5725 5725 5726 5726 5726 5726 5726 5726 5726 5726 5726 5725 5725 5726 5726 5726 5726 5726 5726 5726 5726 5726 5726 5726 5726 5726 5726 5726 5726 5726 5726 5726 5726
5711 5712 5712 5714 5715 5715 5716 5717 5717 5716 5715 5716 5718 5718 5718 5719 5720 5721 5721 5721 5722 5722 5722 5722 5722 5721 5721 5721 5721 5722 5722 5721 5722 5722 5723 5723 5723 5723 5722 5723 5723 5723 5723 5723 5723 5723 5723 5723 5723 5723 5723 5723 5723 5723 5723 5723 5723 5723 5723 5723 5723 5723 5723
5706 5708 5708 5709 5710 5710 5711 5712 5711 5711 5711 5712 5713 5714 5714 5715 5716 5717 5717 5718 5718 5718 5719 5719 5719 5718 5718 5718 5718 5718 5718 5718 5718 5718 5719 5719 5720 5720 5719 5719 5719 5719 5719 5720 5720 5720 5719 5720 5720 5720 5720 5720 5720 5720 5720 5720 5720 5720 5720 5720 5720 5720 5720
5702 5702 5703 5703 5704 5705 5706 5706 5706 5707 5707 5708 5709 5709 5710 5710 5711 5711 5712 5713 5713 5714 5714 5714 5714 5714 5714 5715 5715 5715 5715 5715 5714 5714 5714 5714 5715 5716 5716 5715 5715 5715 5715 5716 5716 5716 5716 5716 5716 5716 5716 5716 5716 5716 5716 5716 5716 5716 5716 5716 5716 5716 5716
5697 5697 5697 5698 5699 5700 5700 5701 5702 5702 5703 5703 5704 5704 5705 5705 5706 5706 5706 5707 5708 5708 5708 5708 5709 5709 5709 5710 5710 5710 5711 5711 5711 5711 5710 5710 5710 5711 5711 5711 5711 5711 5711 5711 5711 5711 5711 5711 5711 5712 5712 5712 5711 5711 5711 5711 5711 5711 5712 5712 5712 5712 5712
5693 5693 5693 5693 5694 5694 5695 5696 5696 5697 5697 5698 5698 5699 5699 5699 5700 5700 5700 5701 5701 5702 5702 5702 5702 5703 5703 5704 5705 5706 5706 5707 5707 5707 5706 5706 5706 5706 5706 5706 5706 5706 5706 5706 5706 5706 5706 5706 5707 5707 5707 5706 5706 5706 5706 5706 5706 5706 5707 5707 5707 5707 5707
5688 5688 5688 5688 5688 5688 5689 5690 5690 5691 5691 5692 5692 5693 5693 5694 5694 5695 5695 5695 5695 5695 5695 5695 5696 5696 5697 5697 5698 5699 5700 5701 5701 5702 5702 5701 5701 5700 5701 5701 5701 5701 5701 5701 5701 5700 5700 5701 5701 5701 5701 5700 5700 5700 5699 5700 5700 5700 5700 5701 5701 5701 5700
5683 5683 5682 5682 5682 5682 5683 5684 5684 5685 5685 5686 5686 5687 5687 5687 5688 5688 5688 5689 5689 5689 5689 5689 5690 5690 5690 5690 5691 5692 5693 5694 5694 5695 5695 5695 5695 5695 5695 5695 5695 5695 5695 5695 5695 5694 5694 5694 5694 5694 5694 5693 5693 5692 5692 5692 5692 5693 5693 5694 5694 5693 5693
5677 5678 5678 5678 5677 5677 5678 5678 5679 5679 5680 5680 5681 5681 5681 5682 5682 5682 5682 5682 5682 5682 5683 5683 5683 5684 5684 5684 5684 5685 5686 5686 5687 5687 5688 5688 5688 5688 5688 5688 5688 5688 5688 5687 5687 5687 5687 5687 5687 5687 5686 5686 5685 5685 5685 5685 5685 5685 5686 5686 5686 5686 5685
5672 5672 5672 5672 5672 5672 5673 5673 5673 5674 5674 5674 5675 5675 5675 5675 5675 5676 5676 5676 5677 5677 5676 5676 5677 5677 5677 5677 5677 5678 5679 5679 5679 5679 5680 5680 5680 5680 5680 5680 5680 5680 5680 5680 5681 5680 5680 5679 5679 5679 5679 5678 5678 5677 5677 5677 5677 5677 5678 5678 5678 5677 5677
5665 5666 5666 5666 5667 5667 5667 5667 5667 5668 5668 5668 5668 5669 5668 5668 5668 5668 5669 5670 5670 5670 5670 5670 5670 5670 5670 5670 5670 5670 5671 5671 5672 5672 5672 5672 5672 5672 5673 5673 5672 5672 5672 5673 5673 5673 5672 5672 5672 5672 5671 5671 5670 5670 5669 5668 5669 5669 5669 5669 5668 5668 5668
5658 5659 5659 5659 5660 5661 5661 5661 5661 5662 5662 5662 5662 5662 5662 5662 5662 5662 5662 5662 5662 5663 5663 5663 5663 5663 5663 5663 5663 5663 5663 5664 5664 5664 5664 5664 5664 5664 5665 5665 5664 5664 5664 5664 5664 5664 5664 5664 5664 5664 5664 5663 5663 5662 5661 5661 5661 5660 5660 5660 5659 5659 5659
5651 5652 5653 5653 5653 5654 5654 5655 5655 5655 5656 5655 5655 5655 5655 5655 5656 5655 5655 5655 5655 5656 5656 5656 5656 5656 5656 5656 5656 5656 5656 5656 5656 5657 5657 5657 5657 5657 5657 5657 5657 5656 5656 5656 5656 5655 5655 5656 5656 5656 5655 5655 5655 5654 5654 5654 5653 5652 5651 5651 5651 5650 5650
5644 5645 5646 5646 5647 5647 5648 5648 5648 5648 5648 5648 5648 5649 5649 5648 5648 5648 5648 5649 5648 5648 5648 5648 5648 5649 5649 5649 5649 5649 5649 5649 5649 5649 5649 5650 5650 5649 5649 5649 5649 5648 5648 5648 5648 5648 5647 5647 5647 5647 5647 5647 5647 5646 5646 5645 5645 5644 5643 5642 5642 5641 5641
5638 5638 5639 5639 5640 5640 5640 5641 5641 5640 5640 5641 5641 5642 5641 5641 5642 5641 5641 5641 5641 5641 5641 5641 5641 5641 5641 5641 5641 5642 5642 5642 5642 5642 5642 5642 5642 5642 5642 5641 5641 5641 5640 5640 5640 5640 5640 5639 5639 5638 5638 5638 5638 5638 5637 5636 5636 5635 5634 5634 5633 5633 5632
5630 5631 5631 5632 5632 5632 5632 5633 5633 5633 5633 5634 5635 5635 5635 5635 5635 5634 5634 5634 5634 5634 5634 5634 5634 5634 5634 5634 5634 5634 5634 5635 5635 5635 5635 5635 5635 5635 5634 5634 5633 5633 5633 5632 5632 5632 5632 5632 5631 5631 5630 5630 5629 5629 5629 5628 5627 5626 5625 5625 5624 5624 5623
5621 5622 5623 5624 5624 5624 5624 5625 5625 5625 5625 5627 5628 5628 5628 5628 5628 5627 5627 5627 5627 5627 5627 5628 5627 5627 5627 5627 5627 5627 5627 5627 5627 5627 5627 5628 5628 5628 5627 5626 5626 5625 5624 5624 5624 5624 5625 5624 5623 5623 5622 5622 5621 5621 5620 5619 5618 5617 5617 5616 5616 5615 5614
5612 5613 5613 5614 5615 5616 5616 5616 5616 5617 5618 5620 5621 5621 5621 5621 5620 5620 5620 5620 5620 5621 5621 5621 5621 5621 5621 5620 5620 5621 5620 5620 5620 5620 5620 5620 5620 5620 5620 5619 5618 5617 5617 5617 5617 5617 5617 5616 5615 5615 5614 5613 5613 5612 5611 5610 5609 5609 5608 5607 5606 5606 5605
5604 5604 5604 5604 5606 5607 5608 5608 5609 5609 5611 5612 5613 5614 5614 5614 5613 5613 5613 5613 5614 5614 5614 5614 5614 5614 5614 5614 5614 5614 5614 5614 5614 5613 5613 5613 5613 5613 5612 5612 5611 5611 5610 5610 5610 5609 5608 5608 5607 5606 5606 5605 5604 5603 5603 5602 5600 5600 5599 5598 5597 5597 5596
Wind_Speed
13 14 13 13 12 12 12 13 13 13 12 12 12 11 11 12 13 13 13 13 13 13 14 15 15 16 17 18 18 19 20 21 21 21 21 21 21 20 21 21 20 20 20 20 20 20 20 19 18 18 17 16 17 17 17 16 15 15 17 20 24 30 37
13 15 14 14 14 14 14 14 14 13 12 12 12 11 11 12 12 13 13 13 13 13 14 15 16 17 17 18 19 20 20 21 22 22 22 22 22 22 22 22 20 20 21 21 20 20 19 18 18 17 17 17 17 18 19 19 17 15 14 17 20 23 27
13 15 15 15 15 15 15 15 15 14 13 11 11 11 11 12 12 12 12 13 13 13 14 15 16 17 17 18 19 20 21 21 22 22 22 23 22 22 22 21 20 21 22 22 22 22 22 21 20 19 19 19 19 19 21 21 20 18 16 16 18 18 18
13 14 16 16 16 16 16 16 16 14 13 11 10 10 11 11 11 11 11 12 13 13 13 14 15 16 17 18 19 19 20 21 21 21 21 22 22 21 21 20 21 21 21 22 23 24 25 25 24 23 23 23 23 24 24 23 22 20 19 19 20 19 18
13 15 17 17 17 17 16 16 16 15 12 11 10 10 10 10 10 10 10 11 11 12 13 13 14 15 16 17 18 18 19 20 20 20 20 20 20 20 20 19 20 21 21 22 23 24 25 25 25 25 25 25 26 26 26 25 24 23 22 22 22 22 21
15 15 17 18 18 17 17 16 16 14 12 10 10 10 10 10 10 10 10 10 10 11 12 12 13 14 15 16 17 17 18 19 19 18 18 18 19 18 18 18 19 20 21 22 23 24 25 25 25 25 25 26 26 26 26 26 26 25 24 24 24 23 23
19 15 17 18 18 18 18 17 16 14 12 10 10 11 11 11 11 11 10 10 10 10 10 11 12 12 13 14 15 16 17 18 18 18 17 17 17 17 16 16 17 18 19 20 21 22 23 23 24 24 24 24 25 26 26 25 25 25 24 24 23 23 23
24 17 17 17 17 17 18 17 16 14 12 10 10 11 11 12 12 12 12 12 11 10 10 10 11 11 12 13 13 14 15 16 17 17 17 17 17 16 16 15 15 16 17 18 19 20 20 20 20 21 21 22 22 23 23 23 23 23 22 22 22 22 22
25 20 18 17 16 17 18 18 17 15 13 11 10 11 11 11 12 12 13 13 13 12 11 11 11 11 12 12 13 14 14 15 16 17 17 17 17 16 16 16 15 16 16 16 17 17 17 17 17 17 18 18 19 20 21 20 19 19 19 19 19 19 20
21 21 20 18 16 17 18 19 18 16 14 12 12 11 12 12 12 12 12 13 13 14 13 13 12 12 12 13 13 14 14 15 16 16 17 17 17 17 16 16 16 16 16 16 16 16 15 15 15 15 15 16 17 17 18 18 17 16 16 16 17 17 18
20 22 21 18 17 18 18 19 20 18 16 14 13 13 13 13 13 13 13 13 13 14 14 14 14 13 13 13 14 14 15 15 16 16 16 17 17 16 16 16 16 16 16 16 16 16 15 14 14 14 14 14 15 15 15 15 15 14 13 14 14 14 15
21 23 23 19 18 19 19 19 19 20 19 16 15 15 15 15 15 15 15 15 15 14 14 14 14 14 14 14 14 14 15 16 16 16 16 16 17 16 16 16 16 16 16 16 16 16 15 15 14 14 14 15 15 15 15 15 15 14 13 12 12 12 13
21 24 24 21 19 20 20 19 18 18 19 19 18 17 18 18 17 17 17 16 16 15 14 13 13 13 13 13 14 14 15 15 16 17 17 17 17 17 17 17 16 16 16 16 16 16 16 16 15 15 15 15 16 16 16 16 16 15 15 14 13 13 14
20 22 23 20 18 17 18 18 17 16 17 18 19 20 20 20 20 19 19 18 17 16 14 13 13 13 13 14 14 14 14 14 15 16 17 18 18 18 18 17 17 17 17 17 17 17 17 17 16 16 16 16 16 16 17 17 17 17 16 16 15 15 16
22 22 22 22 21 19 19 19 19 19 19 19 20 21 22 21 20 20 20 21 20 18 16 15 14 14 14 14 15 15 15 15 15 15 16 17 18 19 19 19 19 19 18 18 18 18 17 17 17 17 17 17 17 17 17 17 18 18 18 18 17 17 17
24 25 24 25 27 25 24 23 22 22 22 21 21 22 23 22 21 21 21 22 22 21 20 19 18 17 17 16 17 17 17 17 17 16 16 16 17 17 18 19 20 20 20 20 20 20 19 19 19 19 19 19 19 19 19 19 19 19 19 20 20 20 20
26 28 26 25 27 26 25 25 23 23 23 23 23 23 24 25 26 25 25 25 26 25 24 23 21 20 20 19 20 20 20 20 19 18 18 17 17 17 17 18 19 20 20 21 21 21 21 21 21 21 21 21 21 21 21 21 21 21 21 22 22 22 22
22 22 22 22 23 25 25 25 24 23 24 24 24 25 25 26 28 29 28 29 29 29 28 27 26 25 24 23 23 23 23 23 22 22 21 20 20 19 19 19 19 20 20 20 20 20 20 20 21 21 21 22 22 22 22 21 21 21 21 22 22 23 23
22 22 25 27 27 28 28 28 27 27 27 26 25 26 27 27 27 28 29 31 31 31 31 29 28 28 29 28 28 28 27 27 26 25 24 23 22 22 22 21 21 22 21 21 21 21 21 21 21 21 21 22 22 22 22 21 21 21 21 22 22 23 23
29 31 34 35 33 33 32 32 33 33 32 30 28 28 28 28 28 27 27 28 29 29 29 27 26 27 29 31 32 32 31 31 30 28 27 26 25 25 25 25 25 25 24 24 23 23 23 23 23 23 23 23 23 23 23 23 23 23 23 23 24 24 24
35 35 36 36 36 36 36 37 37 37 36 34 32 32 31 31 31 31 30 31 32 32 31 30 29 29 30 30 31 31 31 33 33 31 30 29 28 28 28 28 28 28 27 27 27 27 27 26 26 26 25 26 26 26 26 26 26 25 25 26 26 25 26
41 41 40 39 40 40 40 40 40 40 39 38 37 37 36 36 36 36 36 37 38 38 37 36 35 34 33 33 33 32 31 33 35 35 34 33 32 31 31 31 31 30 30 30 30 30 30 30 29 29 29 29 30 30 30 30 30 29 29 29 29 29 29
43 44 45 45 44 43 43 43 43 42 42 42 41 41 40 40 40 41 41 41 41 41 41 40 39 38 37 36 36 35 33 33 34 35 35 35 35 34 34 34 34 33 32 33 33 34 34 33 33 33 33 33 34 34 34 35 35 34 34 33 33 33 34
42 44 45 47 48 47 46 46 45 45 45 44 44 44 44 44 44 44 44 44 45 45 45 44 43 42 40 39 38 38 37 36 36 36 36 36 36 36 36 36 36 35 35 34 35 36 37 37 37 37 37 38 38 38 39 39 40 39 39 38 38 39 39
42 42 42 44 46 48 48 47 47 47 46 46 46 46 46 46 46 46 47 47 47 47 47 46 46 44 43 43 42 41 41 40 40 40 40 40 41 42 42 41 41 41 41 40 40 41 41 41 41 41 41 42 42 43 44 44 44 44 44 43 43 44 44
43 43 43 43 43 45 46 46 46 45 45 45 45 46 47 47 47 48 48 48 48 48 48 47 46 45 45 45 45 45 44 43 43 43 44 44 46 47 46 45 44 45 45 46 47 48 48 49 49 48 47 48 48 49 49 49 49 49 49 48 48 48 48
44 44 44 44 43 42 43 43 43 43 43 44 44 45 46 46 47 48 48 48 48 47 47 47 46 46 46 46 46 47 46 46 46 46 46 47 47 48 47 46 45 45 46 47 48 49 50 51 51 51 51 52 53 53 53 52 53 53 53 52 51 51 52
46 45 44 44 43 42 42 42 43 45 46 47 48 47 48 48 48 48 47 47 46 46 46 46 46 46 46 46 47 47 47 47 47 48 48 48 48 48 47 47 46 46 47 47 48 49 50 51 51 52 52 53 53 54 54 55 55 55 55 55 55 55 56
47 46 45 45 45 45 45 46 48 49 50 50 50 50 51 51 50 50 49 47 46 46 45 46 46 46 46 46 47 47 47 47 47 47 48 48 48 48 48 48 48 49 48 47 46 47 49 50 51 51 52 53 54 54 56 56 57 57 57 58 58 58 58
48 48 48 47 47 48 49 50 51 51 52 52 52 53 54 53 52 51 50 49 48 47 47 46 46 46 46 47 47 48 48 48 47 47 47 48 48 49 49 49 50 51 50 49 48 48 48 49 49 50 51 53 54 55 56 57 58 58 59 59 60 60 60
50 50 49 49 49 50 51 52 52 53 53 54 54 54 53 52 52 51 50 50 50 49 49 48 48 48 48 48 48 48 48 49 48 48 48 48 48 49 49 49 50 50 50 50 49 49 48 48 49 50 51 52 52 53 54 56 57 59 60 60 61 61 62
52 51 51 51 52 52 53 54 54 55 54 54 53 52 51 51 51 52 51 51 51 51 51 51 50 50 50 50 49 49 49 49 49 49 49 49 49 49 49 49 50 50 50 50 50 50 50 50 50 50 51 51 51 52 53 54 56 57 58 59 59 60 61
55 56 57 57 57 57 57 56 55 54 53 53 52 52 52 52 52 52 52 52 52 52 51 51 52 51 51 51 51 50 50 50 50 50 50 49 49 50 50 50 50 50 50 50 50 50 51 51 51 52 52 51 52 52 53 54 55 55 56 57 57 58 59
59 59 59 59 58 58 57 56 55 54 54 53 52 52 53 52 52 51 51 51 51 51 51 51 51 51 51 51 51 51 51 51 50 50 50 50 50 50 51 51 51 51 51 51 52 52 52 52 53 53 53 52 53 53 53 54 55 56 56 57 57 58 58
62 61 59 57 57 56 56 55 55 55 54 52 51 50 50 49 49 50 50 50 50 50 50 49 49 49 50 49 49 50 50 50 50 50 50 50 50 50 51 51 52 52 53 53 53 53 53 53 53 53 53 53 54 54 54 55 56 57 57 57 58 58 59
62 61 59 59 58 57 56 55 54 53 52 50 49 48 47 47 48 48 48 48 48 48 48 48 48 48 49 49 49 48 48 48 48 48 48 48 48 48 49 50 51 52 53 53 53 53 53 53 53 53 54 54 54 55 55 56 57 57 58 58 58 59 59
60 60 59 59 58 56 55 54 53 52 51 49 48 47 47 47 47 48 48 47 47 47 47 47 48 48 48 48 48 48 48 47 47 47 46 46 45 45 46 46 47 48 49 49 49 50 51 52 52 53 53 53 54 54 54 55 56 57 57 58 59 59 59
Wind_Direction
295 297 297 298 302 304 300 294 286 281 278 276 275 272 269 267 267 267 267 267 265 263 262 261 260 258 257 257 257 258 258 258 257 255 255 254 252 252 253 253 254 255 254 252 254 257 259 261 258 256 258 256 252 250 248 245 241 241 245 245 242 240 239
296 298 301 307 310 308 303 297 290 285 280 278 279 277 275 271 268 266 265 264 262 261 260 260 261 260 259 258 257 257 258 258 258 257 256 256 255 253 254 255 254 253 253 252 253 256 256 256 255 256 256 253 251 251 252 255 255 253 252 250 245 243 244
292 298 302 308 309 306 302 296 291 288 285 284 285 284 283 280 276 271 268 266 265 263 261 260 260 260 259 259 258 258 258 258 258 258 257 256 256 254 254 255 254 253 255 255 254 254 252 249 249 249 248 246 245 247 253 259 261 260 259 254 248 250 255
289 299 301 303 305 302 299 296 293 290 289 290 292 292 289 287 284 280 274 270 269 267 265 262 260 260 260 259 258 258 258 258 257 256 256 255 255 254 252 250 250 252 254 255 254 254 254 252 251 249 248 247 247 250 256 259 259 258 258 257 256 259 263
284 297 298 298 301 298 294 293 291 290 291 294 299 299 297 293 289 286 280 274 271 268 267 265 262 261 261 260 259 258 258 258 258 257 256 255 255 254 251 247 246 248 251 254 255 256 258 259 258 257 256 256 255 256 257 258 258 258 258 259 260 262 263
280 289 295 295 296 293 289 287 287 286 289 297 304 304 302 298 293 289 285 280 274 270 267 265 263 262 261 261 260 260 260 260 259 258 256 255 255 254 251 246 244 244 246 250 253 254 256 259 260 260 260 260 260 260 259 259 261 261 259 259 260 260 260
279 280 287 290 291 288 284 284 284 282 284 294 304 306 303 299 295 290 285 280 275 271 268 266 265 264 262 261 261 260 260 260 259 259 256 255 254 253 251 248 244 244 244 246 249 252 255 256 259 261 261 261 262 262 261 261 262 262 261 260 259 258 258
276 274 279 283 283 280 279 280 280 278 279 285 295 301 302 299 296 292 287 282 276 271 267 266 266 266 266 264 262 261 259 259 259 257 256 255 253 252 250 248 246 244 244 245 248 251 254 256 258 259 260 261 262 262 262 261 261 261 261 260 259 257 255
271 271 277 280 276 272 273 275 275 275 275 279 286 291 293 293 293 292 290 287 282 277 271 266 264 264 266 266 266 264 262 260 260 259 257 255 252 251 249 246 244 243 242 243 246 249 251 253 255 255 257 258 259 260 261 261 260 260 260 260 259 258 255
271 272 276 279 271 265 268 272 274 276 274 276 279 281 283 283 284 285 285 285 283 281 277 272 268 265 264 265 267 268 268 265 262 261 259 257 254 252 250 247 245 243 241 241 243 245 246 247 248 248 249 251 252 255 257 259 260 259 259 259 259 258 256
276 275 276 278 270 262 265 270 274 278 277 276 276 276 278 278 277 277 276 277 277 277 277 276 274 271 268 266 266 268 270 270 269 265 263 261 259 256 254 251 249 247 245 244 243 244 244 243 242 240 240 242 245 247 250 253 254 254 253 253 254 255 254
279 278 276 275 269 261 262 266 273 279 280 279 278 278 280 280 280 278 276 275 274 273 274 275 276 276 273 271 269 268 269 271 272 272 270 267 264 261 258 254 252 250 248 246 245 244 244 243 240 237 235 236 238 240 241 244 246 245 241 240 241 242 242
279 278 271 267 265 261 261 264 271 280 285 285 283 281 281 281 280 279 278 277 276 274 273 274 275 278 279 278 276 273 271 270 271 272 273 272 269 265 262 258 254 251 249 248 247 245 244 244 243 240 237 236 238 239 240 241 243 244 242 238 235 233 233
280 276 263 253 251 256 264 267 267 272 278 282 283 281 280 281 281 282 282 280 278 276 277 277 276 277 281 282 281 279 277 273 270 269 268 269 269 267 264 261 258 254 251 250 249 249 248 247 247 248 247 245 244 244 244 245 246 249 250 248 244 240 239
277 274 263 253 252 258 267 267 261 263 265 268 272 275 278 281 283 284 284 284 283 280 281 283 281 279 279 278 278 278 276 275 272 269 266 264 265 265 264 262 259 257 254 252 250 250 250 251 251 252 253 254 253 252 251 251 251 252 253 255 255 252 250
272 272 271 267 263 263 265 263 259 261 262 262 265 268 273 276 277 276 278 282 285 284 286 286 285 283 279 275 274 273 272 272 271 270 269 266 264 263 262 260 258 256 255 254 252 251 251 251 251 252 252 253 254 255 255 255 255 255 255 255 256 256 256
272 270 271 269 263 259 260 258 256 258 260 261 262 262 264 269 271 272 275 278 281 283 286 288 287 284 280 277 275 273 271 269 267 268 269 269 268 264 261 260 258 257 255 255 254 253 253 252 253 253 253 254 254 255 257 258 260 260 260 259 258 257 257
275 268 268 267 264 263 261 256 257 262 266 267 265 262 262 264 267 270 272 274 276 279 283 286 285 283 282 280 277 275 272 269 267 267 267 267 267 266 263 262 260 258 257 256 256 256 254 254 254 254 254 254 254 255 256 258 260 262 264 266 265 264 262
268 265 272 274 272 270 267 265 266 269 271 273 272 269 267 266 267 268 269 269 270 273 277 280 279 280 282 281 278 276 274 271 271 270 268 266 265 266 265 264 262 262 260 259 259 259 258 258 257 256 256 255 254 255 255 256 258 260 263 266 269 270 270
269 270 274 276 273 269 267 267 268 268 272 275 276 274 271 269 268 268 269 270 271 273 275 277 277 279 281 281 281 279 276 273 273 272 271 267 264 263 264 263 263 263 263 262 261 261 261 260 260 260 260 259 259 258 258 258 260 261 262 264 266 269 271
277 276 275 274 275 273 271 269 269 271 276 278 277 276 275 273 272 270 269 269 272 274 276 276 276 276 278 279 281 282 280 277 274 273 272 269 264 261 261 261 261 260 261 262 262 262 261 260 260 259 259 260 261 261 261 261 262 262 263 264 265 267 269
280 280 278 276 277 277 276 274 274 276 279 279 279 279 277 277 276 274 272 272 273 275 276 276 275 275 275 276 278 280 280 278 275 273 273 272 268 263 261 261 261 260 261 262 262 263 262 261 260 259 258 259 259 260 261 261 261 261 262 263 264 266 267
279 279 278 277 276 275 275 275 275 276 278 279 279 279 279 278 278 279 278 278 278 278 279 278 277 277 276 276 276 276 276 275 273 271 271 271 269 266 264 262 262 262 263 263 263 264 264 263 263 262 262 262 262 263 263 262 262 261 261 262 262 264 265
274 274 274 273 273 272 272 273 274 275 276 277 278 279 279 279 279 280 280 280 280 280 280 280 279 278 277 275 274 274 272 271 270 269 267 266 267 268 267 265 264 265 266 266 266 266 266 265 266 266 266 266 266 267 267 267 266 265 265 265 265 266 266
272 272 274 274 273 272 272 272 274 275 276 277 277 278 278 277 277 276 276 277 278 278 279 279 279 278 276 275 274 273 272 270 268 267 266 264 265 267 268 268 267 267 268 268 268 269 269 270 270 270 269 269 269 271 272 272 271 270 270 269 269 268 268
271 274 276 278 276 274 272 273 274 275 276 276 277 277 278 277 277 276 276 275 275 275 276 275 275 274 273 273 273 273 272 270 268 266 264 263 263 265 267 268 267 267 268 268 268 268 269 270 270 270 270 270 270 272 273 273 272 272 272 272 270 269 269
270 272 275 275 274 272 270 270 271 272 274 276 277 277 277 276 276 276 276 275 275 274 273 272 272 271 270 270 270 270 270 269 267 265 264 263 263 264 265 266 267 267 266 266 266 267 267 267 267 267 267 268 268 270 270 270 270 270 270 270 270 269 268
269 270 271 271 271 270 269 269 271 273 276 277 277 277 277 276 275 274 273 273 273 273 273 273 273 272 271 270 270 270 270 270 269 268 267 266 265 265 265 266 267 266 265 265 265 265 265 265 266 266 266 267 267 268 268 268 268 268 268 269 268 268 268
269 269 268 268 268 268 268 271 273 275 277 277 277 277 278 277 276 275 274 273 273 272 273 273 274 274 273 272 272 272 273 272 271 270 270 269 268 267 267 267 268 269 270 270 267 264 263 263 264 265 265 266 266 266 266 267 267 268 268 268 268 268 268
268 268 268 267 267 268 269 271 272 274 276 276 276 277 277 275 274 274 274 274 273 273 272 272 272 272 272 272 272 272 272 272 272 271 271 271 270 270 270 269 270 271 273 273 270 267 265 264 264 264 264 264 264 265 265 266 267 267 267 267 268 268 268
266 267 267 267 268 269 269 270 271 273 274 274 275 275 274 273 271 271 271 271 272 272 272 271 271 271 271 271 271 271 271 272 272 272 272 272 272 272 272 271 271 272 272 271 271 270 269 267 266 265 265 265 265 265 265 266 266 266 266 266 266 267 267
264 265 266 267 269 269 269 270 272 273 273 272 272 272 271 270 270 270 269 269 270 270 270 271 271 271 271 271 271 272 272 273 273 273 273 273 273 274 273 273 272 272 272 271 271 270 270 269 269 268 268 268 268 267 266 266 265 265 265 266 266 266 266
263 266 268 270 270 271 271 271 272 273 272 271 270 269 269 269 269 269 269 269 269 269 270 270 271 271 272 272 273 273 273 274 274 274 274 274 274 274 274 274 273 273 273 272 272 271 271 271 271 271 271 270 270 269 268 268 267 267 267 267 268 268 268
266 267 269 270 270 271 271 271 271 271 271 271 270 268 268 268 268 268 269 269 269 269 269 270 271 271 272 273 273 274 274 274 274 274 274 274 273 274 274 274 273 273 273 272 272 271 271 271 272 272 272 271 271 270 270 269 269 269 269 269 269 269 269
268 269 269 269 269 270 270 270 270 270 270 270 269 267 266 266 266 266 266 267 267 268 269 269 270 271 271 272 273 273 274 274 274 274 274 273 273 272 272 272 272 272 272 271 272 272 272 272 272 272 271 271 271 270 270 269 269 269 269 269 269 269 269
269 269 269 269 269 269 269 269 269 269 269 269 268 267 266 266 265 265 265 265 266 266 267 268 269 270 271 271 272 273 273 274 274 274 274 274 273 272 271 271 271 271 271 272 273 273 273 272 272 271 271 271 270 270 270 270 270 270 270 270 270 269 269
269 269 269 269 269 268 269 269 268 268 268 267 266 267 267 266 265 265 265 264 264 265 266 267 268 269 270 271 272 273 273 274 274 273 273 273 272 272 271 271 272 273 273 274 273 273 273 273 272 272 272 272 272 273 273 273 272 272 272 272 271 271 271